Location: Gwi?dziele
(51.3984°N, 17.8610°E)
Time: 07:16:25
(UTC+00:00)

Daily predictions for brighter satellites

Satellite Brightness Start Highest point End
(mag) Time Altitude Azimuth Time Altitude Azimuth Time Altitude Azimuth
NOSS 3-1 (C) 4.5 15:44:13 10° NW 15:50:25 37° NNE 15:57:40 10° E
Cosmos 1486 Rocket 4.0 15:49:30 10° SSW 15:54:44 85° ESE 16:00:00 10° NNE
Landsat 5 3.4 15:53:54 10° NNE 15:57:50 56° ESE 16:01:38 10° S
Cosmos 1953 3.9 15:55:15 10° NNW 15:58:59 40° W 16:02:42 10° SSW
Cosmos 1943 3.3 15:53:20 10° NNW 15:59:04 90° WSW 16:04:44 10° SSE
Lacrosse 5 2.0 15:54:08 10° WNW 15:59:10 59° NNE 16:04:10 10° E
Cosmos 1726 Rocket 4.0 16:00:49 10° N 16:04:56 39° ENE 16:09:03 10° SE
COSMOS 2455 4.0 16:01:04 10° SSE 16:05:49 25° ESE 16:10:37 10° NE
Meteor 1-24 Rocket 4.0 16:01:25 10° SSE 16:06:25 42° E 16:11:23 10° NNE
CREW DRAGON DEMO-1 DEB 2.6 16:04:33 10° W 16:07:28 84° N 16:10:22 10° E
ERS-2 4.1 16:07:29 10° ENE 16:09:00 12° E 16:10:31 10° ESE
Cosmos 1833 Rocket 4.3 16:06:18 10° N 16:09:42 16° NNE 16:12:57 10° ENE
Cosmos 1939 Rocket 3.2 16:06:37 10° SE 16:10:32 44° ENE 16:14:26 10° N
Cosmos 2082 Rocket 4.1 16:08:21 10° N 16:11:00 13° NNE 16:13:39 10° NE
NOSS 3-4 (A) 3.8 16:06:52 10° WSW 16:12:46 61° NW 16:19:12 10° NE
NOSS 3-4 (C) 3.8 16:07:02 10° WSW 16:12:55 61° NW 16:19:22 10° NE
Cosmos 2279 Rocket 4.0 16:10:57 10° N 16:17:12 64° ENE 16:23:24 10° SSE
Feng Yun 1-1 Rocket 4.3 16:12:19 10° SE 16:17:34 52° ENE 16:22:58 10° N
Cosmos 1674 3.8 16:14:09 10° SSW 16:17:51 46° WNW 16:21:36 10° N
Cosmos 1315 Rocket 2.7 16:15:00 10° NNW 16:18:59 85° ENE 16:22:59 10° SSE
Cosmos 1503 Rocket 4.1 16:17:20 10° SSW 16:22:42 86° ESE 16:28:08 10° NNE
CZ-4 R/B 2.3 16:19:21 10° ESE 16:22:49 27° ENE 16:26:13 10° N
Cosmos 2227 4.2 16:18:14 10° SSW 16:23:50 76° ESE 16:29:32 10° NNE
COSMO-SKYMED 1 3.4 16:20:12 10° NNE 16:24:05 31° E 16:27:58 10° SSE
Cosmos 1536 Rocket 4.2 16:19:58 10° SSW 16:24:18 58° WNW 16:28:42 10° N
Cosmos 2227 Rocket 3.8 16:22:14 10° W 16:27:06 28° NW 16:32:00 10° NNE
ATLAS 2AS CENTAUR R/B 3.3 16:22:28 10° WSW 16:30:24 68° NW 16:38:04 10° NE
Cosmos 1634 Rocket 4.3 16:24:38 10° NNW 16:30:52 72° W 16:37:06 10° S
Cosmos 1844 Rocket 3.7 16:30:07 10° SSE 16:34:36 25° ESE 16:37:42 16° ENE
CZ-2C R/B 3.3 16:30:17 10° SE 16:35:29 56° ENE 16:40:59 10° N
Okean-O 3.2 16:33:22 10° SE 16:37:24 36° ENE 16:41:29 10° N
H-2A R/B 4.0 16:33:48 10° S 16:37:37 40° W 16:41:35 10° NNW
CZ-4B R/B 1.8 16:35:11 10° NNE 16:38:27 42° E 16:41:38 10° S
H-2A R/B 2.5 16:33:54 10° SE 16:38:27 37° ENE 16:43:08 10° N
Cosmos 2344 4.3 16:30:55 10° NW 16:39:06 51° NNE 16:49:28 12° E
SeaSat 1 4.1 16:35:44 10° NNE 16:39:57 29° NW 16:44:09 10° WSW
Cosmos 158 Rocket 4.4 16:35:06 10° NNW 16:40:10 43° ENE 16:45:16 10° SE
Okean O Rocket 2.4 16:36:02 10° S 16:40:24 57° WSW 16:44:47 10° NNW
Cosmos 773 Rocket 4.3 16:35:58 10° NNW 16:41:06 68° WSW 16:46:12 10° SSE
Cosmos 1680 Rocket 4.2 16:36:46 10° NNW 16:41:31 33° NE 16:46:09 10° ESE
SMAP 4.4 16:38:03 10° S 16:42:29 44° W 16:46:58 10° NNW
Cosmos 1626 3.2 16:40:08 10° SSW 16:43:42 47° WNW 16:47:18 10° N
CZ-4B R/B 4.1 16:39:05 10° S 16:44:30 53° W 16:50:02 10° NNW
Cosmos 1689 Rocket 4.4 16:48:09 11° SE 16:48:09 11° SE 16:48:19 10° SE
Aureole 2 Rocket 3.4 16:45:53 10° SSE 16:48:02 22° ESE 16:48:02 22° ESE
Meteor 2-10 Rocket 3.5 16:45:05 10° N 16:50:42 75° ENE 16:56:02 10° SSE
Cosmos 2297 Rocket 4.2 16:47:53 10° W 16:51:57 20° NNW 16:56:02 10° NNE
Cosmos 1818 4.5 16:47:23 10° S 16:52:00 29° ESE 16:54:12 22° ENE
Cosmos 1606 Rocket 4.3 16:51:31 10° NNW 16:55:48 56° W 17:00:07 10° S
H-2A R/B 2.7 16:52:26 10° N 16:56:51 58° WNW 17:01:09 10° SSW
CZ-2D R/B 3.2 16:53:13 10° SSE 16:57:05 88° ENE 17:00:58 10° NNW
SAR-Lupe-4 4.4 16:57:08 29° E 16:57:20 29° E 17:00:29 10° SSE
USA 234 3.5 16:52:59 20° E 16:57:37 58° N 17:04:01 10° WNW
Aureole 1 4.3 16:55:29 10° NNW 16:58:31 46° ENE 16:59:24 34° ESE
CSL-04 Rocket 4.0 16:54:19 10° SE 16:59:21 41° ENE 17:04:27 10° N
YAOGAN 1 2.6 16:55:29 10° SE 16:59:41 52° ENE 17:03:55 10° N
Cosmos 1892 Rocket 3.4 16:56:19 10° S 17:00:39 76° E 17:04:59 10° NNE
Cosmos 1092 Rocket 4.5 16:56:38 10° SSE 17:02:06 35° E 17:07:35 10° NNE
ATLAS 5 CENTAUR R/B 1.8 16:58:58 10° SW 17:03:04 66° NW 17:06:05 21° NE
Meteor 2-1 Rocket 4.1 16:58:14 10° N 17:03:48 64° ENE 17:09:16 10° SSE
Iridium 4 Rocket 4.2 16:59:58 10° N 17:05:16 36° ENE 17:10:12 10° SE
Helios 1A Rocket 3.1 17:01:32 10° SE 17:05:32 49° ENE 17:09:33 10° N
MOS 1 Rocket 3.0 17:02:05 10° NNE 17:06:23 60° E 17:10:37 10° S
RESURS DK-1 3.8 17:04:40 10° WSW 17:08:28 34° NW 17:11:53 12° NNE
Cosmos 1812 Rocket 4.1 17:06:49 10° N 17:10:55 36° ENE 17:11:36 34° E
SKYMED 2 3.5 17:07:55 10° NNE 17:12:18 87° E 17:16:39 10° SSW
Cosmos 1538 Rocket 4.5 17:09:40 10° NNW 17:14:47 62° WSW 17:19:52 10° S
Aureole 3 2.8 17:11:09 10° N 17:14:54 68° ENE 17:18:03 10° SSE
CZ-4C R/B 3.3 17:11:52 10° W 17:16:58 39° NNW 17:21:18 18° NE
SJ-11-01 4.2 17:12:41 10° SSE 17:17:20 66° ENE 17:22:00 10° N
CZ-3B R/B 1.7 17:15:04 10° WNW 17:17:28 82° SSW 17:20:09 25° ESE
SJ 16-02 1.6 17:13:55 10° S 17:18:07 45° ESE 17:18:57 40° ENE
Cosmos 2112 Rocket 4.1 17:14:01 10° NNW 17:19:10 51° ENE 17:21:52 26° ESE
Nadezhda 4 Rocket 3.9 17:13:10 10° S 17:19:22 70° E 17:25:32 10° NNE
Cosmos 1777 Rocket 4.1 17:16:16 10° SSW 17:21:33 81° WNW 17:26:00 15° NNE
Cosmos 2263 Rocket 3.1 17:18:23 10° SW 17:23:51 46° NW 17:28:56 12° NNE
Cosmos 1455 2.1 17:21:34 10° N 17:25:24 87° W 17:29:13 10° S
Cosmos 2058 Rocket 3.9 17:22:51 10° NNW 17:27:15 54° W 17:31:39 10° S
COSMOS 2406 3.6 17:26:28 10° NNW 17:31:57 40° NE 17:32:43 39° ENE
X-37B 3.1 17:32:05 10° SSW 17:33:14 14° S 17:33:14 14° S
Meteor 2-13 Rocket 4.4 17:31:45 10° S 17:37:52 88° E 17:44:03 10° N
ARGOS 3.0 17:32:42 10° SSE 17:38:03 79° ENE 17:43:27 10° NNW
Lacrosse 5 2.5 17:37:16 10° WNW 17:42:10 52° SW 17:44:59 24° SSE
Okean 1-7 Rocket 4.0 17:37:44 10° SSW 17:42:15 65° WNW 17:46:49 10° N
NOSS 3-1 (C) 3.9 17:35:09 10° NW 17:42:22 77° NE 17:47:11 28° SE
CREW DRAGON DEMO-1 DEB 4.2 17:39:46 10° W 17:41:52 36° WSW 17:41:52 36° WSW
ERS-2 2.3 17:42:03 46° N 17:42:58 68° WNW 17:46:34 10° SSW
CZ-2C R/B 3.2 17:45:49 39° SE 17:45:49 39° SE 17:50:01 10° S
PSLV R/B 4.0 17:43:31 34° N 17:45:20 82° WNW 17:49:33 10° SSW
ISS -1.9 17:43:17 10° SW 17:45:00 23° SSW 17:45:00 23° SSW
CSL-04 Debris 4.1 17:42:45 10° SSE 17:48:09 87° WSW 17:53:35 10° NNW
Cosmos 1553 Rocket 4.1 17:44:20 10° N 17:50:36 51° ENE 17:51:29 47° E
COSMOS 2455 2.9 17:45:09 10° SW 17:51:12 77° NW 17:54:03 33° NNE
Cosmos 1626 Rocket 3.4 17:49:01 10° S 17:53:25 88° WNW 17:54:01 66° N
Cosmos 1833 Rocket 3.0 17:49:37 10° NNW 17:54:41 47° NE 17:54:41 47° NE
Cosmos 1844 3.6 17:50:17 10° SSW 17:55:55 75° ESE 17:57:10 55° NE
USA 281 3.9 17:56:41 33° NE 17:56:41 33° NE 18:02:02 10° NNW
Cosmos 2026 Rocket 3.8 17:50:25 10° S 17:56:26 64° E 18:02:34 10° NNE
Cosmos 2082 Rocket 3.2 17:51:49 10° NNW 17:55:56 31° NNE 17:55:56 31° NNE
Cosmos 990 Rocket 4.5 17:52:30 10° S 17:56:17 43° SSE 17:56:17 43° SSE
CZ-4 R/B 2.9 17:53:55 10° SSW 17:57:44 36° W 18:01:30 10° NNW
USA 229 DEB 3.8 17:52:09 10° NW 17:59:22 74° NE 18:01:49 46° ESE
USA 229 3.8 17:52:15 10° NW 17:59:27 73° NE 18:01:52 46° ESE
COSMO-SKYMED 1 4.1 17:56:20 10° N 18:00:17 34° WNW 18:04:13 10° SW
DMSP B5D1-3 4.4 18:01:30 38° NNE 18:03:32 87° W 18:08:37 10° SSW
USA 267 3.9 18:04:12 35° SE 18:04:12 35° SE 18:09:32 10° SSW
SL-08 RB Rocket 3.7 18:05:15 78° NW 18:05:15 78° NW 18:09:31 10° NNW
Ariane Rocket 4.3 18:10:03 27° N 18:10:03 27° N 18:12:27 10° N
CZ-4B R/B 4.2 18:08:14 11° NNW 18:10:22 17° WNW 18:12:38 10° WSW
Okean-O 4.4 18:09:58 10° SSW 18:13:55 31° W 18:17:54 10° NNW
NOSS 3-1 (A) 3.9 18:07:41 10° NW 18:14:55 77° NE 18:16:58 54° ESE
H-2A R/B 3.4 18:13:16 10° SSW 18:17:52 38° W 18:22:39 10° NNW
Cosmos 1844 Rocket 2.9 18:12:23 10° SW 18:18:01 68° WNW 18:19:25 50° N
Meteor 2-15 4.4 18:16:21 10° NNW 18:22:33 87° W 18:24:41 44° S
ATLAS 2AS CENTAUR R/B 4.0 18:15:33 10° W 18:22:43 36° NNW 18:25:30 28° NNE
Cosmos 1680 Rocket 4.3 18:18:47 10° NNW 18:23:49 48° WSW 18:26:36 25° SSW
Cosmos 2098 Rocket 4.3 18:26:10 10° S 18:33:21 89° W 18:40:50 10° N
Cosmos 1818 3.9 18:29:50 10° SW 18:34:52 63° WNW 18:34:52 63° WNW
USA 234 3.1 18:40:20 87° SE 18:40:28 89° SSW 18:47:04 10° WNW
ATLAS 5 CENTAUR R/B 3.7 18:44:56 10° WNW 18:47:37 23° NW 18:47:37 23° NW
Cosmos 2344 4.4 18:45:19 10° NW 18:54:27 74° SW 18:59:35 40° SSE
SJ 16-02 3.5 18:53:10 10° WSW 18:55:59 24° WNW 18:55:59 24° WNW
CZ-4C R/B 3.9 19:01:59 10° WNW 19:06:30 28° N 19:06:30 28° N
Cosmos 2263 Rocket 4.5 19:05:55 10° WNW 19:09:16 16° NNW 19:10:38 15° N
COSMOS 2406 4.5 19:10:52 10° NW 19:14:49 38° WNW 19:14:49 38° WNW
Cosmos 2082 Rocket 4.3 19:35:49 10° NW 19:37:48 22° NW 19:37:48 22° NW
ATLAS 2AS CENTAUR R/B 4.5 20:08:42 10° NW 20:12:57 28° NNW 20:12:57 28° NNW
